Simultaneous Nadir Overpasses (SNOs) Predictions

Prediction of SNOs between GOES-15 and METOP-C Satellite Orbit:

Table of predicted SNOs for the next 14.0 days since TLE Epoch: 4/16/2022
Index Date Time (GOES-15) GOES-15 Lat,Lon METOP-C Lat,Lon Distance(km) Time Diff (sec)
1 04/16/2022 17:54:50 -0.10,-128.40 -0.73,-125.65 314.48 80
2 04/18/2022 06:11:09 0.11,-128.34 -0.29,-130.24 215.62 80
3 04/19/2022 05:53:08 0.11,-128.33 0.77,-125.23 352.37 80
4 04/20/2022 18:09:21 -0.12,-128.36 0.21,-129.80 165.23 80
5 04/21/2022 17:51:21 -0.12,-128.34 -0.92,-124.81 402.26 80
6 04/23/2022 06:07:41 0.13,-128.27 -0.11,-129.41 129.34 80
7 04/24/2022 05:49:41 0.13,-128.25 1.02,-124.41 437.96 80
8 04/25/2022 18:05:52 -0.14,-128.27 0.00,-128.97 80.00 80
9 04/26/2022 17:47:52 -0.14,-128.25 -1.08,-123.97 487.51 80
10 04/28/2022 06:04:11 0.14,-128.18 0.04,-128.56 44.01 80
